Location: Gensac
(43.2177°N, 1.1313°E)
Time: 08:50:10
(UTC+00:00)

IGS 5A - Pass Details

Date: 20 March 2026
Orbit: 551 x 554 km, 97.4° (Epoch: 8 January)

Event Time Altitude Azimuth Distance (km) Brightness Sun altitude
Rises 05:09:24 0° 20° (NNE) 2,734 7.3 -9.8°
Reaches altitude 10° 05:11:39 10° 28° (NNE) 1,835 6.5 -9.4°
Maximum altitude 05:15:22 38° 97° (E) 856 5.0 -8.8°
Drops below altitude 10° 05:19:03 10° 167° (SSE) 1,821 6.1 -8.1°
Sets 05:21:17 0° 175° (S) 2,710 6.8 -7.7°
